Weather reports worldwide

Advertisment
Ciudad Victoria, Mexico (76491): temperature & dewpoint: 15.02.2019 19:00:00 - 21.02.2019 19:00:00 (CST)Ciudad Victoria, Mexico (76491): wind speed: 15.02.2019 19:00:00 - 21.02.2019 19:00:00 (CST)Ciudad Victoria, Mexico (76491): wind direction: 15.02.2019 19:00:00 - 21.02.2019 19:00:00 (CST)Ciudad Victoria, Mexico (76491): reduced air pressure: 15.02.2019 19:00:00 - 21.02.2019 19:00:00 (CST)Ciudad Victoria, Mexico (76491): visibility: 15.02.2019 19:00:00 - 21.02.2019 19:00:00 (CST)
Date & Time tt [°C] td [°C] ff [km/h] ff [kn] dd ppp [hPa] vv [km]
21.02.2019 19:00:00 - - - - - - -
21.02.2019 18:00:00 27,4 14,2 4 2 N 1007,4 10
21.02.2019 17:00:00 - - - - - - -
21.02.2019 16:00:00 - - - - - - -
21.02.2019 15:00:00 27,0 12,9 0 0 N 1008,8 10
21.02.2019 14:00:00 - - - - - - -
21.02.2019 13:00:00 - - - - - - -
21.02.2019 12:00:00 22,0 11,2 4 2 ENE 1013,0 10
21.02.2019 11:00:00 - - - - - - -
21.02.2019 10:00:00 - - - - - - -
21.02.2019 09:00:00 13,6 10,3 0 0 N 1014,9 10
21.02.2019 08:00:00 - - - - - - -
21.02.2019 07:00:00 - - - - - - -
21.02.2019 06:00:00 8,6 8,4 0 0 N 1013,4 6
21.02.2019 05:00:00 - - - - - - -
21.02.2019 04:00:00 - - - - - - -
21.02.2019 03:00:00 - - - - - - -
21.02.2019 02:00:00 - - - - - - -
21.02.2019 01:00:00 - - - - - - -
21.02.2019 00:00:00 14,0 9,4 0 0 N 1015,4 6
20.02.2019 23:00:00 - - - - - - -
20.02.2019 22:00:00 - - - - - - -
20.02.2019 21:00:00 16,4 10,4 4 2 S 1016,0 6
20.02.2019 20:00:00 - - - - - - -
20.02.2019 19:00:00 - - - - - - -
20.02.2019 18:00:00 17,2 8,4 4 2 N 1014,6 10
20.02.2019 17:00:00 - - - - - - -
20.02.2019 16:00:00 - - - - - - -
20.02.2019 15:00:00 16,2 8,6 14 8 N 1016,0 8
20.02.2019 14:00:00 - - - - - - -
20.02.2019 13:00:00 - - - - - - -
20.02.2019 12:00:00 13,8 11,8 14 8 N 1019,8 8
20.02.2019 11:00:00 - - - - - - -
20.02.2019 10:00:00 - - - - - - -
20.02.2019 09:00:00 11,8 11,6 22 12 N 1017,9 8
20.02.2019 08:00:00 - - - - - - -
20.02.2019 07:00:00 - - - - - - -
20.02.2019 06:00:00 14,8 14,6 14 8 N 1013,4 6
20.02.2019 05:00:00 - - - - - - -
20.02.2019 04:00:00 - - - - - - -
20.02.2019 03:00:00 - - - - - - -
20.02.2019 02:00:00 - - - - - - -
20.02.2019 01:00:00 - - - - - - -
20.02.2019 00:00:00 17,4 16,8 0 0 N 1008,9 6
19.02.2019 23:00:00 - - - - - - -
19.02.2019 22:00:00 - - - - - - -
19.02.2019 21:00:00 - - 0 0 N 1018,4 6
19.02.2019 20:00:00 - - - - - - -
19.02.2019 19:00:00 - - - - - - -
19.02.2019 18:00:00 26,9 15,1 4 2 NNW 1006,0 10
19.02.2019 17:00:00 - - - - - - -
19.02.2019 16:00:00 - - - - - - -
19.02.2019 15:00:00 26,2 14,9 4 2 SW 1008,5 10
19.02.2019 14:00:00 - - - - - - -
19.02.2019 13:00:00 - - - - - - -
19.02.2019 12:00:00 22,4 11,5 4 2 S 1013,7 10
19.02.2019 11:00:00 - - - - - - -
19.02.2019 10:00:00 - - - - - - -
19.02.2019 09:00:00 14,6 12,6 0 0 N 1016,1 10
19.02.2019 08:00:00 - - - - - - -
19.02.2019 07:00:00 - - - - - - -
19.02.2019 06:00:00 11,8 11,6 0 0 N 1015,3 6
19.02.2019 05:00:00 - - - - - - -
19.02.2019 04:00:00 - - - - - - -
19.02.2019 03:00:00 13,6 13,4 0 0 N 1017,2 6
19.02.2019 02:00:00 - - - - - - -
19.02.2019 01:00:00 - - - - - - -
19.02.2019 00:00:00 16,0 14,7 0 0 N 1019,2 6
18.02.2019 23:00:00 - - - - - - -
18.02.2019 22:00:00 - - - - - - -
18.02.2019 21:00:00 16,2 14,3 0 0 N 1019,4 6
18.02.2019 20:00:00 - - - - - - -
18.02.2019 19:00:00 - - - - - - -
18.02.2019 18:00:00 - - - - - - -
18.02.2019 17:00:00 - - - - - - -
18.02.2019 16:00:00 - - - - - - -
18.02.2019 15:00:00 - - - - - - -
18.02.2019 14:00:00 - - - - - - -
18.02.2019 13:00:00 - - - - - - -
18.02.2019 12:00:00 16,6 13,9 7 4 N 1020,7 10
18.02.2019 11:00:00 - - - - - - -
18.02.2019 10:00:00 - - - - - - -
18.02.2019 09:00:00 18,0 14,7 4 2 N 1018,2 10
18.02.2019 08:00:00 - - - - - - -
18.02.2019 07:00:00 - - - - - - -
18.02.2019 06:00:00 19,4 17,8 4 2 N 1014,6 6
18.02.2019 05:00:00 - - - - - - -
18.02.2019 04:00:00 - - - - - - -
18.02.2019 03:00:00 21,8 19,0 7 4 N 1013,8 6
18.02.2019 02:00:00 - - - - - - -
18.02.2019 01:00:00 - - - - - - -
18.02.2019 00:00:00 23,2 19,1 11 6 N 1013,7 6
17.02.2019 23:00:00 - - - - - - -
17.02.2019 22:00:00 - - - - - - -
17.02.2019 21:00:00 23,2 20,0 7 4 N 1011,7 6
17.02.2019 20:00:00 - - - - - - -
17.02.2019 19:00:00 - - - - - - -
17.02.2019 18:00:00 24,6 22,1 14 8 N 1007,7 10
17.02.2019 17:00:00 - - - - - - -
17.02.2019 16:00:00 - - - - - - -
17.02.2019 15:00:00 27,1 21,7 29 16 N 1007,3 10
17.02.2019 14:00:00 - - - - - - -
17.02.2019 13:00:00 - - - - - - -
17.02.2019 12:00:00 30,0 19,8 14 8 N 1007,9 10
17.02.2019 11:00:00 - - - - - - -
17.02.2019 10:00:00 - - - - - - -
17.02.2019 09:00:00 23,6 19,9 0 0 N 1007,3 10
17.02.2019 08:00:00 - - - - - - -
17.02.2019 07:00:00 - - - - - - -
17.02.2019 06:00:00 - - - - - - -
17.02.2019 05:00:00 - - - - - - -
17.02.2019 04:00:00 - - - - - - -
17.02.2019 03:00:00 - - - - - - -
17.02.2019 02:00:00 - - - - - - -
17.02.2019 01:00:00 - - - - - - -
17.02.2019 00:00:00 - - - - - - -
16.02.2019 23:00:00 - - - - - - -
16.02.2019 22:00:00 - - - - - - -
16.02.2019 21:00:00 - - - - - - -
16.02.2019 20:00:00 - - - - - - -
16.02.2019 19:00:00 - - - - - - -
16.02.2019 18:00:00 35,8 16,7 4 2 E 999,7 10
16.02.2019 17:00:00 - - - - - - -
16.02.2019 16:00:00 - - - - - - -
16.02.2019 15:00:00 35,6 17,7 4 2 WNW 1001,6 10
16.02.2019 14:00:00 - - - - - - -
16.02.2019 13:00:00 - - - - - - -
16.02.2019 12:00:00 29,8 16,5 4 2 N 1007,1 10
16.02.2019 11:00:00 - - - - - - -
16.02.2019 10:00:00 - - - - - - -
16.02.2019 09:00:00 21,0 17,1 0 0 N 1008,9 10
16.02.2019 08:00:00 - - - - - - -
16.02.2019 07:00:00 - - - - - - -
16.02.2019 06:00:00 - - - - - - -
16.02.2019 05:00:00 - - - - - - -
16.02.2019 04:00:00 - - - - - - -
16.02.2019 03:00:00 - - - - - - -
16.02.2019 02:00:00 - - - - - - -
16.02.2019 01:00:00 - - - - - - -
16.02.2019 00:00:00 20,0 17,9 4 2 W 1009,5 6
15.02.2019 23:00:00 - - - - - - -
15.02.2019 22:00:00 - - - - - - -
15.02.2019 21:00:00 23,6 17,8 4 2 W 1009,1 6
15.02.2019 20:00:00 - - - - - - -
15.02.2019 19:00:00 - - - - - - -

tt = temperature
td = dewpoint
ff = wind speed
dd = wind direction
ppp = reduced air pressure
vv = visibility

Next stations